This is the latest recevied weather packets stored in our database for station/object M0TUM-1. If no packets are shown the sender has not sent any weather packets the latest 10 day(s).
| Time | Temp. | Humidity | Pressure | Rain* | Wind** | Luminosity | Snow |
|---|---|---|---|---|---|---|---|
| 1777542955 | 16.11° C | 46% | 1026.1 hPa | 0 mm | - | 671 W/m² | - |
| 1777542652 | 16.67° C | 45% | 1026.2 hPa | 0 mm | - | 655 W/m² | - |
| 1777542348 | 16.11° C | 45% | 1026.2 hPa | 0 mm | - | 650 W/m² | - |
| 1777542045 | 16.67° C | 46% | 1025.9 hPa | 0 mm | - | 628 W/m² | - |
| 1777541743 | 15.56° C | 47% | 1026 hPa | 0 mm | - | 643 W/m² | - |
| 1777541439 | 15.56° C | 48% | 1026.1 hPa | 0 mm | - | 649 W/m² | - |
| 1777541135 | 15.56° C | 48% | 1025.8 hPa | 0 mm | - | 634 W/m² | - |
| 1777540833 | 15.56° C | 48% | 1026 hPa | 0 mm | - | 618 W/m² | - |
| 1777540530 | 15.56° C | 47% | 1026.1 hPa | 0 mm | - | 622 W/m² | - |
| 1777540226 | 15.56° C | 47% | 1026 hPa | 0 mm | - | 569 W/m² | - |
| 1777539921 | 15.56° C | 48% | 1026 hPa | 0 mm | - | 542 W/m² | - |
| 1777539618 | 15° C | 49% | 1026.2 hPa | 0 mm | - | 569 W/m² | - |
| 1777539314 | 15° C | 49% | 1025.9 hPa | 0 mm | - | 557 W/m² | - |
| 1777539011 | 15° C | 49% | 1026.2 hPa | 0 mm | - | 532 W/m² | - |
| 1777538098 | 15° C | 49% | 1026.1 hPa | 0 mm | - | 529 W/m² | - |
| 1777537793 | 15° C | 51% | 1026.2 hPa | 0 mm | - | 513 W/m² | - |
| 1777537491 | 15° C | 50% | 1026.3 hPa | 0 mm | - | 480 W/m² | - |
| 1777537186 | 14.44° C | 51% | 1026 hPa | 0 mm | - | 405 W/m² | - |
| 1777536882 | 14.44° C | 52% | 1026.1 hPa | 0 mm | - | 406 W/m² | - |
| 1777536580 | 13.89° C | 52% | 1026.1 hPa | 0 mm | - | 409 W/m² | - |
| 1777536277 | 14.44° C | 52% | 1026.2 hPa | 0 mm | - | 390 W/m² | - |
| 1777535973 | 14.44° C | 52% | 1026.4 hPa | 0 mm | - | 373 W/m² | - |
| 1777535669 | 14.44° C | 52% | 1026.2 hPa | 0 mm | - | 72 W/m² | - |
| 1777534760 | 13.33° C | 53% | 1026.2 hPa | 0 mm | - | 321 W/m² | - |
| 1777534457 | 13.89° C | 53% | 1026.4 hPa | 0 mm | - | 318 W/m² | - |
* Rain latest hour (hover to see other rain measurements)
** Current wind speed in m/s (hover to see current wind gust speed)